Weather History for Hillsdale, MI

Change the Weather History Date:

Tuesday, January 8, 2013

  Actual Average Record
Temperature  
Mean Temperature 30 °F -  
Max Temperature 38 °F 27 °F 60 °F (1965)
Min Temperature 22 °F 9 °F -14 °F (1981)
Degree Days  
Heating Degree Days 35    
Moisture  
Dew Point 24 °F    
Average Humidity 79    
Maximum Humidity 94    
Minimum Humidity 58    
Precipitation  
Precipitation 0.00 in - - ()
Sea Level Pressure  
Sea Level Pressure 30.17 in    
Wind  
Wind Speed 6 mph (South)    
Max Wind Speed 9 mph    
Max Gust Speed -    
Visibility 7 miles    
Events      
Averages and records for this station are not official NWS values.
T = Trace of Precipitation, MM = Missing Value Source: NWS Daily Summary

Daily Weather History Graph

Daily Weather History Graph

Search for Another Location

Airport:

Trip Planner

Search our weather history database for the weather conditions in past years. The results will help you decide how hot, cold, wet, or windy it might be!

Date:

Astronomy

Jan. 08, 2013 Rise Set
Actual Time 8:05 AM EST 5:24 PM EST
Civil Twilight 7:34 AM EST 5:56 PM EST
Nautical Twilight 6:59 AM EST 6:30 PM EST
Astronomical Twilight 6:26 AM EST 7:04 PM EST
Moon 4:37 AM EST (1/8) 2:26 PM EST (1/8)
Length of Visible Light 10h 21m
Length of Day
9h 19m
Waning Crescent, 14% of the Moon is Illuminated
Jan 8
Waning Crescent
Jan 11
New
Jan 18
First Quarter
Jan 26
Full
Feb 3
Last Quarter

Hourly Weather History & Observations

Time (EST) Temp. Windchill Dew Point Humidity Pressure Visibility Wind Dir Wind Speed Gust Speed Precip Events Conditions
12:14 AM 29.1 °F 22.1 °F 22.8 °F 77% 30.14 in 10.0 mi WSW 6.9 mph - N/A   Clear
12:35 AM 28.9 °F 22.8 °F 22.6 °F 77% 30.14 in 10.0 mi WSW 5.8 mph - N/A   Clear
12:54 AM 29.7 °F 23.7 °F 22.6 °F 75% 30.13 in 10.0 mi WSW 5.8 mph - N/A   Clear
1:15 AM 29.7 °F 22.8 °F 22.8 °F 76% 30.13 in 10.0 mi SW 6.9 mph - N/A   Clear
1:54 AM 28.8 °F 23.7 °F 22.3 °F 77% 30.13 in 10.0 mi SSW 4.6 mph - N/A   Clear
2:14 AM 28.0 °F 24.2 °F 22.3 °F 79% 30.14 in 10.0 mi SSW 3.5 mph - N/A   Clear
2:35 AM 27.5 °F 22.2 °F 22.1 °F 80% 30.14 in 10.0 mi SSW 4.6 mph - N/A   Clear
2:55 AM 27.0 °F 21.6 °F 21.9 °F 81% 30.15 in 7.0 mi SSW 4.6 mph - N/A   Clear
3:14 AM 27.0 °F 23.0 °F 21.9 °F 81% 30.15 in 7.0 mi SSW 3.5 mph - N/A   Clear
3:35 AM 26.2 °F 19.6 °F 21.9 °F 84% 30.14 in 7.0 mi South 5.8 mph - N/A   Clear
3:55 AM 25.2 °F 20.9 °F 21.4 °F 86% 30.14 in 7.0 mi SSW 3.5 mph - N/A   Clear
4:15 AM 25.5 °F 18.7 °F 21.9 °F 86% 30.14 in 7.0 mi SSW 5.8 mph - N/A   Clear
4:35 AM 25.3 °F 19.7 °F 21.7 °F 86% 30.14 in 7.0 mi SSW 4.6 mph - N/A   Clear
4:55 AM 25.9 °F 20.3 °F 21.9 °F 85% 30.14 in 7.0 mi SW 4.6 mph - N/A   Clear
5:14 AM 25.2 °F 20.9 °F 21.6 °F 86% 30.14 in 7.0 mi SSW 3.5 mph - N/A   Clear
5:35 AM 25.0 °F 20.7 °F 21.7 °F 87% 30.14 in 7.0 mi SSW 3.5 mph - N/A   Clear
5:55 AM 25.0 °F - 21.7 °F 87% 30.14 in 7.0 mi Calm Calm - N/A   Clear
6:15 AM 24.6 °F 20.3 °F 21.9 °F 89% 30.14 in 7.0 mi SSW 3.5 mph - N/A   Clear
6:35 AM 24.4 °F 20.1 °F 21.7 °F 89% 30.14 in 5.0 mi South 3.5 mph - N/A   Clear
6:54 AM 23.4 °F - 21.4 °F 92% 30.15 in 5.0 mi Calm Calm - N/A   Clear
7:15 AM 23.5 °F - 21.7 °F 93% 30.16 in 5.0 mi Calm Calm - N/A   Clear
7:35 AM 23.4 °F 18.9 °F 21.6 °F 93% 30.16 in 4.0 mi South 3.5 mph - N/A   Clear
7:54 AM 23.2 °F 17.2 °F 21.4 °F 93% 30.17 in 4.0 mi South 4.6 mph - N/A   Clear
8:14 AM 22.8 °F 18.2 °F 21.2 °F 93% 30.18 in 3.0 mi South 3.5 mph - N/A   Clear
8:35 AM 22.8 °F 16.7 °F 21.4 °F 94% 30.18 in 3.0 mi South 4.6 mph - N/A   Clear
9:14 AM 24.3 °F 19.9 °F 22.3 °F 92% 30.19 in 2.5 mi South 3.5 mph - N/A   Clear
9:34 AM 25.5 °F 18.7 °F 22.8 °F 89% 30.20 in 3.0 mi South 5.8 mph - N/A   Clear
9:55 AM 26.6 °F 21.2 °F 23.4 °F 88% 30.20 in 4.0 mi South 4.6 mph - N/A   Clear
10:14 AM 28.8 °F 20.9 °F 23.7 °F 81% 30.20 in 5.0 mi South 8.1 mph - N/A   Haze
10:34 AM 28.6 °F 21.5 °F 23.5 °F 81% 30.21 in 5.0 mi SSW 6.9 mph - N/A   Clear
10:54 AM 30.6 °F 25.8 °F 23.9 °F 76% 30.21 in 5.0 mi SSW 4.6 mph - N/A   Haze
11:15 AM 31.5 °F 24.2 °F 24.1 °F 74% 30.22 in 7.0 mi SW 8.1 mph - N/A   Clear
11:34 AM 32.4 °F 26.9 °F 24.4 °F 73% 30.21 in 7.0 mi SSW 5.8 mph - N/A   Clear
11:55 AM 33.3 °F 27.9 °F 24.4 °F 70% 30.20 in 7.0 mi South 5.8 mph - N/A   Clear
12:15 PM 34.9 °F 29.0 °F 24.8 °F 67% 30.19 in 7.0 mi SSW 6.9 mph - N/A   Clear
12:34 PM 36.0 °F 29.6 °F 25.2 °F 65% 30.18 in 7.0 mi South 8.1 mph - N/A   Clear
12:55 PM 36.0 °F 31.1 °F 25.0 °F 64% 30.18 in 7.0 mi SSW 5.8 mph - N/A   Clear
1:15 PM 36.0 °F 31.1 °F 25.2 °F 65% 30.17 in 7.0 mi South 5.8 mph - N/A   Clear
1:35 PM 36.0 °F 32.1 °F 25.0 °F 64% 30.17 in 7.0 mi South 4.6 mph - N/A   Clear
1:54 PM 36.1 °F 30.6 °F 24.8 °F 63% 30.16 in 7.0 mi South 6.9 mph - N/A   Clear
2:15 PM 37.0 °F 31.0 °F 24.6 °F 61% 30.17 in 10.0 mi SW 8.1 mph - N/A   Clear
2:54 PM 38.1 °F 32.9 °F 24.6 °F 58% 30.16 in 10.0 mi South 6.9 mph - N/A   Clear
3:15 PM 37.8 °F 32.5 °F 25.2 °F 60% 30.17 in 10.0 mi South 6.9 mph - N/A   Clear
3:35 PM 37.0 °F 30.4 °F 25.2 °F 62% 30.18 in 7.0 mi South 9.2 mph - N/A   Clear
3:55 PM 36.5 °F 31.0 °F 25.5 °F 64% 30.18 in 7.0 mi SSE 6.9 mph - N/A   Clear
4:15 PM 35.8 °F 28.8 °F 25.5 °F 66% 30.17 in 7.0 mi SSE 9.2 mph - N/A   Clear
4:34 PM 34.9 °F 28.3 °F 25.9 °F 70% 30.18 in 7.0 mi South 8.1 mph - N/A   Clear
4:55 PM 34.3 °F 28.4 °F 26.1 °F 72% 30.19 in 7.0 mi SSE 6.9 mph - N/A   Clear
5:15 PM 34.3 °F 29.2 °F 25.3 °F 70% 30.19 in 7.0 mi South 5.8 mph - N/A   Clear
5:34 PM 33.8 °F 27.7 °F 25.3 °F 71% 30.19 in 7.0 mi South 6.9 mph - N/A   Clear
5:55 PM 33.3 °F 27.1 °F 25.3 °F 73% 30.18 in 10.0 mi South 6.9 mph - N/A   Clear
6:15 PM 32.7 °F 26.4 °F 25.3 °F 74% 30.18 in 10.0 mi SSE 6.9 mph - N/A   Clear
6:34 PM 32.0 °F 24.8 °F 25.9 °F 78% 30.18 in 7.0 mi South 8.1 mph - N/A   Clear
6:55 PM 32.2 °F 25.0 °F 26.4 °F 79% 30.17 in 7.0 mi SSE 8.1 mph - N/A   Clear
7:15 PM 31.5 °F 24.2 °F 26.4 °F 82% 30.17 in 7.0 mi SSE 8.1 mph - N/A   Clear
7:35 PM 30.9 °F 22.8 °F 26.4 °F 83% 30.18 in 7.0 mi South 9.2 mph - N/A   Clear
7:54 PM 31.1 °F 23.1 °F 27.0 °F 85% 30.18 in 7.0 mi South 9.2 mph - N/A   Clear
8:15 PM 31.3 °F 23.3 °F 27.1 °F 85% 30.17 in 7.0 mi South 9.2 mph - N/A   Clear
8:35 PM 31.6 °F 25.1 °F 27.1 °F 83% 30.16 in 7.0 mi South 6.9 mph - N/A   Clear
8:55 PM 31.5 °F 24.9 °F 27.0 °F 83% 30.16 in 7.0 mi South 6.9 mph - N/A   Clear
9:15 PM 31.5 °F 24.9 °F 27.0 °F 83% 30.16 in 7.0 mi South 6.9 mph - N/A   Clear
9:35 PM 31.3 °F 23.9 °F 27.1 °F 85% 30.15 in 7.0 mi South 8.1 mph - N/A   Clear
9:54 PM 31.5 °F 24.2 °F 27.1 °F 84% 30.15 in 7.0 mi South 8.1 mph - N/A   Clear
10:15 PM 32.2 °F 25.0 °F 27.7 °F 83% 30.15 in 7.0 mi South 8.1 mph - N/A   Clear
10:35 PM 32.4 °F 24.6 °F 27.5 °F 82% 30.15 in 7.0 mi SSW 9.2 mph - N/A   Clear
11:15 PM 31.5 °F 24.2 °F 27.0 °F 83% 30.13 in 7.0 mi South 8.1 mph - N/A   Clear
11:35 PM 30.7 °F 22.6 °F 27.0 °F 86% 30.13 in 7.0 mi South 9.2 mph - N/A   Clear